Home > Weather > Gambier Islands > Past weeks

Flag for French Polynesia Past Weather in Gambier Islands, French Polynesia — Yesterday and Last 2 Weeks

Now
68 °F

Mild.


Feels Like: 68 °F
Forecast: 67 / 69 °F
Wind: 15 mph from Southeast

Location: Rikitea

Current Time: Jul 24, 2016 at 9:15:38 PM

Latest Report: Jul 24, 2016 at 8:00 PM


Visibility: N/A

Pressure: 30.16 "Hg

Humidity: 71%

Dew Point: 58 °F

Location of Gambier IslandsLocation

Past Weather in Gambier Islands — Graph

°F

Gambier Islands Temperature Yesterday

Maximum temperature yesterday: 74 °F (at 10:00 AM)
Minimum temperature yesterday: 67 °F (at 4:00 PM)
Average temperature yesterday: 70 °F

High & Low Weather Summary for the Past Weeks

 TemperatureHumidityPressure
High77 °F (Jul 18, 12:00 PM)95% (Jul 23, 3:00 PM)30.29 "Hg (Jul 23, 3:00 PM)
Low66 °F (Jul 10, 2:00 AM)54% (Jul 10, 1:00 PM)30.03 "Hg (Jul 16, 3:00 PM)
Average71 °F75%30.14 "Hg
* Reported Jul 9 8:00 PM — Jul 24 8:00 PM, Gambier Islands, Weather by CustomWeather, © 2016

Note: Actual official high and low records may vary slightly from our data, if they occured in-between our weather recording intervals... More about our weather records

Advertising

Gambier Islands Weather History for the Previous 24 Hours

Scroll right to see more
 ConditionsComfort  
Time TempWeatherWind HumidityBarometerVisibility
8:00 PM
Sun, Jul 24
68 °FMild.15 mph71%30.16 "HgN/A
7:00 PM68 °FMild.16 mph69%30.15 "HgN/A
6:00 PM68 °FMild.14 mph68%30.13 "HgN/A
5:00 PM68 °FOvercast.18 mph71%30.11 "Hg16 mi
4:00 PM68 °FOvercast.17 mph68%30.11 "Hg16 mi
3:00 PM68 °FOvercast.14 mph70%30.11 "Hg16 mi
2:00 PM69 °FOvercast.17 mph71%30.11 "Hg16 mi
1:00 PM70 °FPartly sunny.15 mph70%30.13 "Hg16 mi
12:00 PM69 °FOvercast.17 mph72%30.14 "Hg16 mi
11:00 AM69 °FOvercast.15 mph76%30.16 "Hg16 mi
10:00 AM69 °FOvercast.15 mph76%30.18 "Hg16 mi
9:00 AM69 °FOvercast.15 mph74%30.18 "Hg16 mi
8:00 AM69 °FOvercast.14 mph75%30.15 "Hg16 mi
7:00 AM69 °FOvercast.13 mph76%30.14 "Hg16 mi
6:00 AM68 °FOvercast.13 mph78%30.13 "Hg16 mi
5:00 AM68 °FMild.13 mph80%30.11 "HgN/A
4:00 AM68 °FMild.13 mph82%30.11 "HgN/A
3:00 AM67 °FMild.12 mph84%30.12 "HgN/A
2:00 AM67 °FMild.13 mph86%30.14 "HgN/A
1:00 AM68 °FMild.13 mph85%30.14 "HgN/A
12:00 AM68 °FMild.15 mph85%30.14 "HgN/A
11:00 PM
Sat, Jul 23
68 °FMild.14 mph86%30.14 "HgN/A
10:00 PM68 °FMild.12 mph82%30.15 "HgN/A
9:00 PM68 °FMild.12 mph81%30.15 "HgN/A
Weather by CustomWeather, © 2016

See weather overviewHow to use our weather pages